Year,Month,Day,Hour,Minute,Value (Times are PST for windspeed in km/hr)
2005,08,01,00,00,24.20
2005,08,01,00,01,17.30
2005,08,01,00,02,24.80
2005,08,01,00,03,22.50
2005,08,01,00,04,20.80
2005,08,01,00,05,16.50
2005,08,01,00,06,10.40
2005,08,01,00,07,18.20
2005,08,01,00,08,22.80
2005,08,01,00,09,15.10
2005,08,01,00,10,18.40
2005,08,01,00,11,11.50
2005,08,01,00,12,26.40
2005,08,01,00,13,18.60
2005,08,01,00,14,18.90
2005,08,01,00,15,24.70
2005,08,01,00,16,12.70
2005,08,01,00,17,14.50
2005,08,01,00,18,14.60
2005,08,01,00,19,20.30
2005,08,01,00,20,19.70
2005,08,01,00,21,15.70
2005,08,01,00,22,21.00
2005,08,01,00,23,21.10
2005,08,01,00,24,16.70
2005,08,01,00,25,19.20
2005,08,01,00,26,20.90
2005,08,01,00,27,20.00
2005,08,01,00,28,27.60
2005,08,01,00,29,17.60
2005,08,01,00,30,23.40
2005,08,01,00,31,14.80
2005,08,01,00,32,16.70
2005,08,01,00,33,18.80
2005,08,01,00,34,15.30
2005,08,01,00,35,21.60
2005,08,01,00,36,12.70
2005,08,01,00,37,13.60
2005,08,01,00,38,21.40
2005,08,01,00,39,24.60
2005,08,01,00,40,16.30
2005,08,01,00,41,14.50
2005,08,01,00,42,11.70
2005,08,01,00,43,12.20
2005,08,01,00,44,18.20
2005,08,01,00,45,13.50
2005,08,01,00,46,20.20
2005,08,01,00,47,15.30
2005,08,01,00,48,18.60
2005,08,01,00,49,19.50
2005,08,01,00,50,15.70
2005,08,01,00,51,15.90
2005,08,01,00,52,18.30
2005,08,01,00,53,12.20
2005,08,01,00,54,22.40
2005,08,01,00,55,13.00
2005,08,01,00,56,9.30
2005,08,01,00,57,12.50
2005,08,01,00,58,10.10
2005,08,01,00,59,19.80
2005,08,01,01,00,19.00
2005,08,01,01,01,15.20
2005,08,01,01,02,17.90
2005,08,01,01,03,13.50
2005,08,01,01,04,21.30
2005,08,01,01,05,19.60
2005,08,01,01,06,23.30
2005,08,01,01,07,20.10
2005,08,01,01,08,21.20
2005,08,01,01,09,21.10
2005,08,01,01,10,21.80
2005,08,01,01,11,26.40
2005,08,01,01,12,20.70
2005,08,01,01,13,8.30
2005,08,01,01,14,11.40
2005,08,01,01,15,22.80
2005,08,01,01,16,16.50
2005,08,01,01,17,25.20
2005,08,01,01,18,14.60
2005,08,01,01,19,22.20
2005,08,01,01,20,21.20
2005,08,01,01,21,12.90
2005,08,01,01,22,15.90
2005,08,01,01,23,16.60
2005,08,01,01,24,15.60
2005,08,01,01,25,21.40
2005,08,01,01,26,21.20
2005,08,01,01,27,18.90
2005,08,01,01,28,11.30
2005,08,01,01,29,19.50
2005,08,01,01,30,19.30
2005,08,01,01,31,19.90
2005,08,01,01,32,17.60
2005,08,01,01,33,22.80
2005,08,01,01,34,15.30
2005,08,01,01,35,12.10
2005,08,01,01,36,23.40
2005,08,01,01,37,20.30
2005,08,01,01,38,27.70
2005,08,01,01,39,26.90
2005,08,01,01,40,15.80
2005,08,01,01,41,19.80
2005,08,01,01,42,16.90
2005,08,01,01,43,24.40
2005,08,01,01,44,10.90
2005,08,01,01,45,19.20
2005,08,01,01,46,17.70
2005,08,01,01,47,24.10
2005,08,01,01,48,23.90
2005,08,01,01,49,22.30
2005,08,01,01,50,24.60
2005,08,01,01,51,21.90
2005,08,01,01,52,20.70
2005,08,01,01,53,24.10
2005,08,01,01,54,17.80
2005,08,01,01,55,17.90
2005,08,01,01,56,22.20
2005,08,01,01,57,26.40
2005,08,01,01,58,20.00
2005,08,01,01,59,22.70
2005,08,01,02,00,16.80
2005,08,01,02,01,18.70
2005,08,01,02,02,20.20
2005,08,01,02,03,17.80
2005,08,01,02,04,14.30
2005,08,01,02,05,19.50
2005,08,01,02,06,27.40
2005,08,01,02,07,26.40
2005,08,01,02,08,29.40
2005,08,01,02,09,20.50
2005,08,01,02,10,25.70
2005,08,01,02,11,21.30
2005,08,01,02,12,19.20
2005,08,01,02,13,18.00
2005,08,01,02,14,13.30
2005,08,01,02,15,22.10
2005,08,01,02,16,25.90
2005,08,01,02,17,45.70
2005,08,01,02,18,21.00
2005,08,01,02,19,24.40
2005,08,01,02,20,26.70
2005,08,01,02,21,19.50
2005,08,01,02,22,22.00
2005,08,01,02,23,19.20
2005,08,01,02,24,19.50
2005,08,01,02,25,19.60
2005,08,01,02,26,17.10
2005,08,01,02,27,20.40
2005,08,01,02,28,24.10
2005,08,01,02,29,15.50
2005,08,01,02,30,28.90
2005,08,01,02,31,24.70
2005,08,01,02,32,15.10
2005,08,01,02,33,21.70
2005,08,01,02,34,15.90
2005,08,01,02,35,14.60
2005,08,01,02,36,19.90
2005,08,01,02,37,19.20
2005,08,01,02,38,11.60
2005,08,01,02,39,12.70
2005,08,01,02,40,9.60
2005,08,01,02,41,18.00
2005,08,01,02,42,17.40
2005,08,01,02,43,17.60
2005,08,01,02,44,16.20
2005,08,01,02,45,20.80
2005,08,01,02,46,21.20
2005,08,01,02,47,20.20
2005,08,01,02,48,22.30
2005,08,01,02,49,20.20
2005,08,01,02,50,23.60
2005,08,01,02,51,13.60
2005,08,01,02,52,14.40
2005,08,01,02,53,16.70
2005,08,01,02,54,18.50
2005,08,01,02,55,13.50
2005,08,01,02,56,16.60
2005,08,01,02,57,18.90
2005,08,01,02,58,19.80
2005,08,01,02,59,22.60
2005,08,01,03,00,14.30
2005,08,01,03,01,13.60
2005,08,01,03,02,19.40
2005,08,01,03,03,18.00
2005,08,01,03,04,15.10
2005,08,01,03,05,22.40
2005,08,01,03,06,17.40
2005,08,01,03,07,22.30
2005,08,01,03,08,16.50
2005,08,01,03,09,17.60
2005,08,01,03,10,23.90
2005,08,01,03,11,17.40
2005,08,01,03,12,22.80
2005,08,01,03,13,23.00
2005,08,01,03,14,20.50
2005,08,01,03,15,17.90
2005,08,01,03,16,14.70
2005,08,01,03,17,24.40
2005,08,01,03,18,20.90
2005,08,01,03,19,24.20
2005,08,01,03,20,15.10
2005,08,01,03,21,17.30
2005,08,01,03,22,16.50
2005,08,01,03,23,21.00
2005,08,01,03,24,19.70
2005,08,01,03,25,12.80
2005,08,01,03,26,19.30
2005,08,01,03,27,22.60
2005,08,01,03,28,22.40
2005,08,01,03,29,17.20
2005,08,01,03,30,13.60
2005,08,01,03,31,17.90
2005,08,01,03,32,18.30
2005,08,01,03,33,14.90
2005,08,01,03,34,10.30
2005,08,01,03,35,15.10
2005,08,01,03,36,10.60
2005,08,01,03,37,18.00
2005,08,01,03,38,9.10
2005,08,01,03,39,7.10
2005,08,01,03,40,15.40
2005,08,01,03,41,13.10
2005,08,01,03,42,15.90
2005,08,01,03,43,11.80
2005,08,01,03,44,11.70
2005,08,01,03,45,10.80
2005,08,01,03,46,10.60
2005,08,01,03,47,14.10
2005,08,01,03,48,10.10
2005,08,01,03,49,14.20
2005,08,01,03,50,18.00
2005,08,01,03,51,15.60
2005,08,01,03,52,4.30
2005,08,01,03,53,3.00
2005,08,01,03,54,12.30
2005,08,01,03,55,8.20
2005,08,01,03,56,9.30
2005,08,01,03,57,10.70
2005,08,01,03,58,4.80
2005,08,01,03,59,7.50
2005,08,01,04,00,4.50
2005,08,01,04,01,13.10
2005,08,01,04,02,13.70
2005,08,01,04,03,7.40
2005,08,01,04,04,14.50
2005,08,01,04,05,7.20
2005,08,01,04,06,4.40
2005,08,01,04,07,9.10
2005,08,01,04,08,8.00
2005,08,01,04,09,5.30
2005,08,01,04,10,3.40
2005,08,01,04,11,4.30
2005,08,01,04,12,3.20
2005,08,01,04,13,2.80
2005,08,01,04,14,3.70
2005,08,01,04,15,9.30
2005,08,01,04,16,6.90
2005,08,01,04,17,8.10
2005,08,01,04,18,5.40
2005,08,01,04,19,6.90
2005,08,01,04,20,6.70
2005,08,01,04,21,8.60
2005,08,01,04,22,10.30
2005,08,01,04,23,4.00
2005,08,01,04,24,7.50
2005,08,01,04,25,4.70
2005,08,01,04,26,7.60
2005,08,01,04,27,5.60
2005,08,01,04,28,6.80
2005,08,01,04,29,9.40
2005,08,01,04,30,2.50
2005,08,01,04,31,8.00
2005,08,01,04,32,14.50
2005,08,01,04,33,11.60
2005,08,01,04,34,13.20
2005,08,01,04,35,8.40
2005,08,01,04,36,17.80
2005,08,01,04,37,11.00
2005,08,01,04,38,11.30
2005,08,01,04,39,13.70
2005,08,01,04,40,17.70
2005,08,01,04,41,14.40
2005,08,01,04,42,14.60
2005,08,01,04,43,13.90
2005,08,01,04,44,17.90
2005,08,01,04,45,11.40
2005,08,01,04,46,18.50
2005,08,01,04,47,19.20
2005,08,01,04,48,17.40
2005,08,01,04,49,20.40
2005,08,01,04,50,16.00
2005,08,01,04,51,11.50
2005,08,01,04,52,21.40
2005,08,01,04,53,17.00
2005,08,01,04,54,20.70
2005,08,01,04,55,18.80
2005,08,01,04,56,21.00
2005,08,01,04,57,18.80
2005,08,01,04,58,18.10
2005,08,01,04,59,15.90
2005,08,01,05,00,15.70
2005,08,01,05,01,14.80
2005,08,01,05,02,11.00
2005,08,01,05,03,17.50
2005,08,01,05,04,18.10
2005,08,01,05,05,11.60
2005,08,01,05,06,14.00
2005,08,01,05,07,13.70
2005,08,01,05,08,15.70
2005,08,01,05,09,10.90
2005,08,01,05,10,9.90
2005,08,01,05,11,13.40
2005,08,01,05,12,10.60
2005,08,01,05,13,9.70
2005,08,01,05,14,16.30
2005,08,01,05,15,12.70
2005,08,01,05,16,12.10
2005,08,01,05,17,16.10
2005,08,01,05,18,12.00
2005,08,01,05,19,8.20
2005,08,01,05,20,13.20
2005,08,01,05,21,12.30
2005,08,01,05,22,9.00
2005,08,01,05,23,12.90
2005,08,01,05,24,8.20
2005,08,01,05,25,10.50
2005,08,01,05,26,13.00
2005,08,01,05,27,8.00
2005,08,01,05,28,7.70
2005,08,01,05,29,9.00
2005,08,01,05,30,15.80
2005,08,01,05,31,10.40
2005,08,01,05,32,8.30
2005,08,01,05,33,9.80
2005,08,01,05,34,12.50
2005,08,01,05,35,5.30
2005,08,01,05,36,12.40
2005,08,01,05,37,15.00
2005,08,01,05,38,10.00
2005,08,01,05,39,7.90
2005,08,01,05,40,11.90
2005,08,01,05,41,13.90
2005,08,01,05,42,17.40
2005,08,01,05,43,14.00
2005,08,01,05,44,12.80
2005,08,01,05,45,15.10
2005,08,01,05,46,11.70
2005,08,01,05,47,5.70
2005,08,01,05,48,14.10
2005,08,01,05,49,12.80
2005,08,01,05,50,8.90
2005,08,01,05,51,10.20
2005,08,01,05,52,4.60
2005,08,01,05,53,12.00
2005,08,01,05,54,6.10
2005,08,01,05,55,11.10
2005,08,01,05,56,9.70
2005,08,01,05,57,11.00
2005,08,01,05,58,4.60
2005,08,01,05,59,4.30
2005,08,01,06,00,2.50
2005,08,01,06,01,3.70
2005,08,01,06,02,7.40
2005,08,01,06,03,6.60
2005,08,01,06,04,3.50
2005,08,01,06,05,13.60
2005,08,01,06,06,5.60
2005,08,01,06,07,8.60
2005,08,01,06,08,7.00
2005,08,01,06,09,9.50
2005,08,01,06,10,2.50
2005,08,01,06,11,8.90
2005,08,01,06,12,6.60
2005,08,01,06,13,4.90
2005,08,01,06,14,7.40
2005,08,01,06,15,9.50
2005,08,01,06,16,5.90
2005,08,01,06,17,10.90
2005,08,01,06,18,11.90
2005,08,01,06,19,9.30
2005,08,01,06,20,8.10
2005,08,01,06,21,8.90
2005,08,01,06,22,9.10
2005,08,01,06,23,9.20
2005,08,01,06,24,11.90
2005,08,01,06,25,13.40
2005,08,01,06,26,10.60
2005,08,01,06,27,11.70
2005,08,01,06,28,13.40
2005,08,01,06,29,9.30
2005,08,01,06,30,9.90
2005,08,01,06,31,10.20
2005,08,01,06,32,11.20
2005,08,01,06,33,11.00
2005,08,01,06,34,9.40
2005,08,01,06,35,7.90
2005,08,01,06,36,6.10
2005,08,01,06,37,6.50
2005,08,01,06,38,6.90
2005,08,01,06,39,7.70
2005,08,01,06,40,9.90
2005,08,01,06,41,2.80
2005,08,01,06,42,3.70
2005,08,01,06,43,8.10
2005,08,01,06,44,3.70
2005,08,01,06,45,5.30
2005,08,01,06,46,6.00
2005,08,01,06,47,4.10
2005,08,01,06,48,3.90
2005,08,01,06,49,3.10
2005,08,01,06,50,7.20
2005,08,01,06,51,2.60
2005,08,01,06,52,2.50
2005,08,01,06,53,0.50
2005,08,01,06,54,4.60
2005,08,01,06,55,6.10
2005,08,01,06,56,6.90
2005,08,01,06,57,8.10
2005,08,01,06,58,9.30
2005,08,01,06,59,9.10
2005,08,01,07,00,8.10
2005,08,01,07,01,8.10
2005,08,01,07,02,6.80
2005,08,01,07,03,6.30
2005,08,01,07,04,6.70
2005,08,01,07,05,5.70
2005,08,01,07,06,3.90
2005,08,01,07,07,7.50
2005,08,01,07,08,2.70
2005,08,01,07,09,2.30
2005,08,01,07,10,3.80
2005,08,01,07,11,2.30
2005,08,01,07,12,2.20
2005,08,01,07,13,4.20
2005,08,01,07,14,4.30
2005,08,01,07,15,3.80
2005,08,01,07,16,1.20
2005,08,01,07,17,3.60
2005,08,01,07,18,3.70
2005,08,01,07,19,3.90
2005,08,01,07,20,3.70
2005,08,01,07,21,6.40
2005,08,01,07,22,5.60
2005,08,01,07,23,4.80
2005,08,01,07,24,8.00
2005,08,01,07,25,7.90
2005,08,01,07,26,4.70
2005,08,01,07,27,7.50
2005,08,01,07,28,5.70
2005,08,01,07,29,5.60
2005,08,01,07,30,1.10
2005,08,01,07,31,6.10
2005,08,01,07,32,4.10
2005,08,01,07,33,7.30
2005,08,01,07,34,5.20
2005,08,01,07,35,4.50
2005,08,01,07,36,7.20
2005,08,01,07,37,6.30
2005,08,01,07,38,5.90
2005,08,01,07,39,3.40
2005,08,01,07,40,4.30
2005,08,01,07,41,8.10
2005,08,01,07,42,7.00
2005,08,01,07,43,7.50
2005,08,01,07,44,6.10
2005,08,01,07,45,6.90
2005,08,01,07,46,4.30
2005,08,01,07,47,5.00
2005,08,01,07,48,5.00
2005,08,01,07,49,6.10
2005,08,01,07,50,4.90
2005,08,01,07,51,7.60
2005,08,01,07,52,6.40
2005,08,01,07,53,7.80
2005,08,01,07,54,6.50
2005,08,01,07,55,8.70
2005,08,01,07,56,7.20
2005,08,01,07,57,8.00
2005,08,01,07,58,7.20
2005,08,01,07,59,5.30
2005,08,01,08,00,11.10
2005,08,01,08,01,8.50
2005,08,01,08,02,6.60
2005,08,01,08,03,5.00
2005,08,01,08,04,3.90
2005,08,01,08,05,7.00
2005,08,01,08,06,4.00
2005,08,01,08,07,4.00
2005,08,01,08,08,7.80
2005,08,01,08,09,6.00
2005,08,01,08,10,3.70
2005,08,01,08,11,6.40
2005,08,01,08,12,6.10
2005,08,01,08,13,12.60
2005,08,01,08,14,8.80
2005,08,01,08,15,6.40
2005,08,01,08,16,7.20
2005,08,01,08,17,10.10
2005,08,01,08,18,6.30
2005,08,01,08,19,7.80
2005,08,01,08,20,7.80
2005,08,01,08,21,9.70
2005,08,01,08,22,7.10
2005,08,01,08,23,6.40
2005,08,01,08,24,7.60
2005,08,01,08,25,6.40
2005,08,01,08,26,6.40
2005,08,01,08,27,5.30
2005,08,01,08,28,2.50
2005,08,01,08,29,6.10
2005,08,01,08,30,6.50
2005,08,01,08,31,8.50
2005,08,01,08,32,5.70
2005,08,01,08,33,6.20
2005,08,01,08,34,6.20
2005,08,01,08,35,6.80
2005,08,01,08,36,2.40
2005,08,01,08,37,5.50
2005,08,01,08,38,4.40
2005,08,01,08,39,5.70
2005,08,01,08,40,2.50
2005,08,01,08,41,3.30
2005,08,01,08,42,7.50
2005,08,01,08,43,4.50
2005,08,01,08,44,3.40
2005,08,01,08,45,3.80
2005,08,01,08,46,2.70
2005,08,01,08,47,6.90
2005,08,01,08,48,5.40
2005,08,01,08,49,3.90
2005,08,01,08,50,2.70
2005,08,01,08,51,1.50
2005,08,01,08,52,3.10
2005,08,01,08,53,2.70
2005,08,01,08,54,5.30
2005,08,01,08,55,3.10
2005,08,01,08,56,1.30
2005,08,01,08,57,1.20
2005,08,01,08,58,5.70
2005,08,01,08,59,4.40
2005,08,01,09,00,6.00
2005,08,01,09,01,4.10
2005,08,01,09,02,3.10
2005,08,01,09,03,6.10
2005,08,01,09,04,5.90
2005,08,01,09,05,3.70
2005,08,01,09,06,5.00
2005,08,01,09,07,4.90
2005,08,01,09,08,5.70
2005,08,01,09,09,3.40
2005,08,01,09,10,2.00
2005,08,01,09,11,3.80
2005,08,01,09,12,8.70
2005,08,01,09,13,5.00
2005,08,01,09,14,3.70
2005,08,01,09,15,5.00
2005,08,01,09,16,4.60
2005,08,01,09,17,5.90
2005,08,01,09,18,5.20
2005,08,01,09,19,3.70
2005,08,01,09,20,8.40
2005,08,01,09,21,5.60
2005,08,01,09,22,6.10
2005,08,01,09,23,7.50
2005,08,01,09,24,5.00
2005,08,01,09,25,7.20
2005,08,01,09,26,7.70
2005,08,01,09,27,4.20
2005,08,01,09,28,5.40
2005,08,01,09,29,8.40
2005,08,01,09,30,4.20
2005,08,01,09,31,6.10
2005,08,01,09,32,5.30
2005,08,01,09,33,9.30
2005,08,01,09,34,6.70
2005,08,01,09,35,7.30
2005,08,01,09,36,6.40
2005,08,01,09,37,6.40
2005,08,01,09,38,4.50
2005,08,01,09,39,3.30
2005,08,01,09,40,4.60
2005,08,01,09,41,11.30
2005,08,01,09,42,2.90
2005,08,01,09,43,3.40
2005,08,01,09,44,9.20
2005,08,01,09,45,5.10
2005,08,01,09,46,4.10
2005,08,01,09,47,4.50
2005,08,01,09,48,3.30
2005,08,01,09,49,3.50
2005,08,01,09,50,3.20
2005,08,01,09,51,4.30
2005,08,01,09,52,3.10
2005,08,01,09,53,4.90
2005,08,01,09,54,3.80
2005,08,01,09,55,8.70
2005,08,01,09,56,7.30
2005,08,01,09,57,3.70
2005,08,01,09,58,3.40
2005,08,01,09,59,6.40
2005,08,01,10,00,4.40
2005,08,01,10,01,4.70
2005,08,01,10,02,6.80
2005,08,01,10,03,3.90
2005,08,01,10,04,4.30
2005,08,01,10,05,4.70
2005,08,01,10,06,7.80
2005,08,01,10,07,6.10
2005,08,01,10,08,6.20
2005,08,01,10,09,9.90
2005,08,01,10,10,9.10
2005,08,01,10,11,7.40
2005,08,01,10,12,4.70
2005,08,01,10,13,8.60
2005,08,01,10,14,9.50
2005,08,01,10,15,5.10
2005,08,01,10,16,5.00
2005,08,01,10,17,2.80
2005,08,01,10,18,6.80
2005,08,01,10,19,6.00
2005,08,01,10,20,7.40
2005,08,01,10,21,6.90
2005,08,01,10,22,5.40
2005,08,01,10,23,6.00
2005,08,01,10,24,6.50
2005,08,01,10,25,8.10
2005,08,01,10,26,7.80
2005,08,01,10,27,9.10
2005,08,01,10,28,8.10
2005,08,01,10,29,8.40
2005,08,01,10,30,5.20
2005,08,01,10,31,7.80
2005,08,01,10,32,7.80
2005,08,01,10,33,4.60
2005,08,01,10,34,7.60
2005,08,01,10,35,11.00
2005,08,01,10,36,8.10
2005,08,01,10,37,8.70
2005,08,01,10,38,6.10
2005,08,01,10,39,7.40
2005,08,01,10,40,8.70
2005,08,01,10,41,7.00
2005,08,01,10,42,9.30
2005,08,01,10,43,10.80
2005,08,01,10,44,10.10
2005,08,01,10,45,11.90
2005,08,01,10,46,9.30
2005,08,01,10,47,10.00
2005,08,01,10,48,8.70
2005,08,01,10,49,7.50
2005,08,01,10,50,8.40
2005,08,01,10,51,9.10
2005,08,01,10,52,8.20
2005,08,01,10,53,7.10
2005,08,01,10,54,7.90
2005,08,01,10,55,8.50
2005,08,01,10,56,7.00
2005,08,01,10,57,4.60
2005,08,01,10,58,2.20
2005,08,01,10,59,5.60
2005,08,01,11,00,5.00
2005,08,01,11,01,6.90
2005,08,01,11,02,4.00
2005,08,01,11,03,5.50
2005,08,01,11,04,5.40
2005,08,01,11,05,9.00
2005,08,01,11,06,6.50
2005,08,01,11,07,6.50
2005,08,01,11,08,5.50
2005,08,01,11,09,7.50
2005,08,01,11,10,4.80
2005,08,01,11,11,10.00
2005,08,01,11,12,8.10
2005,08,01,11,13,9.30
2005,08,01,11,14,6.70
2005,08,01,11,15,10.60
2005,08,01,11,16,8.10
2005,08,01,11,17,6.80
2005,08,01,11,18,6.40
2005,08,01,11,19,6.40
2005,08,01,11,20,7.00
2005,08,01,11,21,8.10
2005,08,01,11,22,6.70
2005,08,01,11,23,5.30
2005,08,01,11,24,6.70
2005,08,01,11,25,7.90
2005,08,01,11,26,4.30
2005,08,01,11,27,10.00
2005,08,01,11,28,5.00
2005,08,01,11,29,6.00
2005,08,01,11,30,8.10
2005,08,01,11,31,6.40
2005,08,01,11,32,6.30
2005,08,01,11,33,8.60
2005,08,01,11,34,10.70
2005,08,01,11,35,5.60
2005,08,01,11,36,11.00
2005,08,01,11,37,7.90
2005,08,01,11,38,6.20
2005,08,01,11,39,8.90
2005,08,01,11,40,9.70
2005,08,01,11,41,8.10
2005,08,01,11,42,8.20
2005,08,01,11,43,8.90
2005,08,01,11,44,6.60
2005,08,01,11,45,8.10
2005,08,01,11,46,7.60
2005,08,01,11,47,8.90
2005,08,01,11,48,7.50
2005,08,01,11,49,7.20
2005,08,01,11,50,10.10
2005,08,01,11,51,3.90
2005,08,01,11,52,5.90
2005,08,01,11,53,9.90
2005,08,01,11,54,13.00
2005,08,01,11,55,9.70
2005,08,01,11,56,11.90
2005,08,01,11,57,8.90
2005,08,01,11,58,4.90
2005,08,01,11,59,9.10
2005,08,01,12,00,12.10
2005,08,01,12,01,7.80
2005,08,01,12,02,6.90
2005,08,01,12,03,7.20
2005,08,01,12,04,9.90
2005,08,01,12,05,7.00
2005,08,01,12,06,6.10
2005,08,01,12,07,10.80
2005,08,01,12,08,8.40
2005,08,01,12,09,7.00
2005,08,01,12,10,4.50
2005,08,01,12,11,5.40
2005,08,01,12,12,7.50
2005,08,01,12,13,8.70
2005,08,01,12,14,8.50
2005,08,01,12,15,10.00
2005,08,01,12,16,5.00
2005,08,01,12,17,4.50
2005,08,01,12,18,8.70
2005,08,01,12,19,5.10
2005,08,01,12,20,7.10
2005,08,01,12,21,6.40
2005,08,01,12,22,3.50
2005,08,01,12,23,5.00
2005,08,01,12,24,4.90
2005,08,01,12,25,4.50
2005,08,01,12,26,3.40
2005,08,01,12,27,7.70
2005,08,01,12,28,4.00
2005,08,01,12,29,6.80
2005,08,01,12,30,8.30
2005,08,01,12,31,13.90
2005,08,01,12,32,8.90
2005,08,01,12,33,7.50
2005,08,01,12,34,9.70
2005,08,01,12,35,6.60
2005,08,01,12,36,8.90
2005,08,01,12,37,6.00
2005,08,01,12,38,4.40
2005,08,01,12,39,5.40
2005,08,01,12,40,5.10
2005,08,01,12,41,8.50
2005,08,01,12,42,7.10
2005,08,01,12,43,9.30
2005,08,01,12,44,7.80
2005,08,01,12,45,8.90
2005,08,01,12,46,12.00
2005,08,01,12,47,9.90
2005,08,01,12,48,13.90
2005,08,01,12,49,9.50
2005,08,01,12,50,10.00
2005,08,01,12,51,8.50
2005,08,01,12,52,10.30
2005,08,01,12,53,9.40
2005,08,01,12,54,7.90
2005,08,01,12,55,12.10
2005,08,01,12,56,11.10
2005,08,01,12,57,13.70
2005,08,01,12,58,8.20
2005,08,01,12,59,6.10
2005,08,01,13,00,3.40
2005,08,01,13,01,7.50
2005,08,01,13,02,8.70
2005,08,01,13,03,12.00
2005,08,01,13,04,9.70
2005,08,01,13,05,9.30
2005,08,01,13,06,15.90
2005,08,01,13,07,9.10
2005,08,01,13,08,3.90
2005,08,01,13,09,6.00
2005,08,01,13,10,9.70
2005,08,01,13,11,8.80
2005,08,01,13,12,4.90
2005,08,01,13,13,3.80
2005,08,01,13,14,7.70
2005,08,01,13,15,8.30
2005,08,01,13,16,6.60
2005,08,01,13,17,8.00
2005,08,01,13,18,9.00
2005,08,01,13,19,12.60
2005,08,01,13,20,12.40
2005,08,01,13,21,15.60
2005,08,01,13,22,13.60
2005,08,01,13,23,11.00
2005,08,01,13,24,13.20
2005,08,01,13,25,10.80
2005,08,01,13,26,13.60
2005,08,01,13,27,16.00
2005,08,01,13,28,10.90
2005,08,01,13,29,12.70
2005,08,01,13,30,11.10
2005,08,01,13,31,10.80
2005,08,01,13,32,6.70
2005,08,01,13,33,6.60
2005,08,01,13,34,6.50
2005,08,01,13,35,13.00
2005,08,01,13,36,11.90
2005,08,01,13,37,13.00
2005,08,01,13,38,9.20
2005,08,01,13,39,10.80
2005,08,01,13,40,14.30
2005,08,01,13,41,12.30
2005,08,01,13,42,9.30
2005,08,01,13,43,10.10
2005,08,01,13,44,7.30
2005,08,01,13,45,4.90
2005,08,01,13,46,5.10
2005,08,01,13,47,4.10
2005,08,01,13,48,9.40
2005,08,01,13,49,12.80
2005,08,01,13,50,10.40
2005,08,01,13,51,10.00
2005,08,01,13,52,6.10
2005,08,01,13,53,10.50
2005,08,01,13,54,4.00
2005,08,01,13,55,7.20
2005,08,01,13,56,8.50
2005,08,01,13,57,5.20
2005,08,01,13,58,2.50
2005,08,01,13,59,5.70
2005,08,01,14,00,9.10
2005,08,01,14,01,8.80
2005,08,01,14,02,13.10
2005,08,01,14,03,7.20
2005,08,01,14,04,5.40
2005,08,01,14,05,12.60
2005,08,01,14,06,9.60
2005,08,01,14,07,6.40
2005,08,01,14,08,5.30
2005,08,01,14,09,5.80
2005,08,01,14,10,11.00
2005,08,01,14,11,11.70
2005,08,01,14,12,8.90
2005,08,01,14,13,2.60
2005,08,01,14,14,5.70
2005,08,01,14,15,7.80
2005,08,01,14,16,7.00
2005,08,01,14,17,8.10
2005,08,01,14,18,10.30
2005,08,01,14,19,6.80
2005,08,01,14,20,10.00
2005,08,01,14,21,7.40
2005,08,01,14,22,6.90
2005,08,01,14,23,6.40
2005,08,01,14,24,1.90
2005,08,01,14,25,3.10
2005,08,01,14,26,9.60
2005,08,01,14,27,4.20
2005,08,01,14,28,6.40
2005,08,01,14,29,5.40
2005,08,01,14,30,4.80
2005,08,01,14,31,9.50
2005,08,01,14,32,3.50
2005,08,01,14,33,8.20
2005,08,01,14,34,8.90
2005,08,01,14,35,10.80
2005,08,01,14,36,7.00
2005,08,01,14,37,5.30
2005,08,01,14,38,6.70
2005,08,01,14,39,5.60
2005,08,01,14,40,7.30
2005,08,01,14,41,9.30
2005,08,01,14,42,9.10
2005,08,01,14,43,6.80
2005,08,01,14,44,10.80
2005,08,01,14,45,8.80
2005,08,01,14,46,7.10
2005,08,01,14,47,10.40
2005,08,01,14,48,9.10
2005,08,01,14,49,5.40
2005,08,01,14,50,7.20
2005,08,01,14,51,6.60
2005,08,01,14,52,6.10
2005,08,01,14,53,8.50
2005,08,01,14,54,7.20
2005,08,01,14,55,5.00
2005,08,01,14,56,9.00
2005,08,01,14,57,3.20
2005,08,01,14,58,3.30
2005,08,01,14,59,6.40
2005,08,01,15,00,3.80
2005,08,01,15,01,5.20
2005,08,01,15,02,7.50
2005,08,01,15,03,4.80
2005,08,01,15,04,2.70
2005,08,01,15,05,7.40
2005,08,01,15,06,6.30
2005,08,01,15,07,6.50
2005,08,01,15,08,7.70
2005,08,01,15,09,8.00
2005,08,01,15,10,5.60
2005,08,01,15,11,8.20
2005,08,01,15,12,6.30
2005,08,01,15,13,5.00
2005,08,01,15,14,8.00
2005,08,01,15,15,14.30
2005,08,01,15,16,7.00
2005,08,01,15,17,5.90
2005,08,01,15,18,5.10
2005,08,01,15,19,9.30
2005,08,01,15,20,4.70
2005,08,01,15,21,3.20
2005,08,01,15,22,2.00
2005,08,01,15,23,2.60
2005,08,01,15,24,7.60
2005,08,01,15,25,7.50
2005,08,01,15,26,9.70
2005,08,01,15,27,6.40
2005,08,01,15,28,8.50
2005,08,01,15,29,5.90
2005,08,01,15,30,4.10
2005,08,01,15,31,5.30
2005,08,01,15,32,4.50
2005,08,01,15,33,3.50
2005,08,01,15,34,7.30
2005,08,01,15,35,3.80
2005,08,01,15,36,4.00
2005,08,01,15,37,9.30
2005,08,01,15,38,9.00
2005,08,01,15,39,5.00
2005,08,01,15,40,4.60
2005,08,01,15,41,5.00
2005,08,01,15,42,8.10
2005,08,01,15,43,5.80
2005,08,01,15,44,3.40
2005,08,01,15,45,4.30
2005,08,01,15,46,4.50
2005,08,01,15,47,6.40
2005,08,01,15,48,4.40
2005,08,01,15,49,3.90
2005,08,01,15,50,6.40
2005,08,01,15,51,5.90
2005,08,01,15,52,7.50
2005,08,01,15,53,6.80
2005,08,01,15,54,5.90
2005,08,01,15,55,4.60
2005,08,01,15,56,6.60
2005,08,01,15,57,4.30
2005,08,01,15,58,4.00
2005,08,01,15,59,7.50
2005,08,01,16,00,9.30
2005,08,01,16,01,5.00
2005,08,01,16,02,7.60
2005,08,01,16,03,11.00
2005,08,01,16,04,8.80
2005,08,01,16,05,6.60
2005,08,01,16,06,8.20
2005,08,01,16,07,4.30
2005,08,01,16,08,9.10
2005,08,01,16,09,7.90
2005,08,01,16,10,7.40
2005,08,01,16,11,9.00
2005,08,01,16,12,12.20
2005,08,01,16,13,11.50
2005,08,01,16,14,14.80
2005,08,01,16,15,10.30
2005,08,01,16,16,10.90
2005,08,01,16,17,7.70
2005,08,01,16,18,7.60
2005,08,01,16,19,8.70
2005,08,01,16,20,7.80
2005,08,01,16,21,13.90
2005,08,01,16,22,16.60
2005,08,01,16,23,10.90
2005,08,01,16,24,5.10
2005,08,01,16,25,13.00
2005,08,01,16,26,13.60
2005,08,01,16,27,15.90
2005,08,01,16,28,8.00
2005,08,01,16,29,5.60
2005,08,01,16,30,10.80
2005,08,01,16,31,11.90
2005,08,01,16,32,14.10
2005,08,01,16,33,10.70
2005,08,01,16,34,8.30
2005,08,01,16,35,7.30
2005,08,01,16,36,8.30
2005,08,01,16,37,9.90
2005,08,01,16,38,12.00
2005,08,01,16,39,17.30
2005,08,01,16,40,17.90
2005,08,01,16,41,8.10
2005,08,01,16,42,8.40
2005,08,01,16,43,10.50
2005,08,01,16,44,23.50
2005,08,01,16,45,14.60
2005,08,01,16,46,6.40
2005,08,01,16,47,16.80
2005,08,01,16,48,14.80
2005,08,01,16,49,10.00
2005,08,01,16,50,11.40
2005,08,01,16,51,11.60
2005,08,01,16,52,16.20
2005,08,01,16,53,10.10
2005,08,01,16,54,13.50
2005,08,01,16,55,15.10
2005,08,01,16,56,9.10
2005,08,01,16,57,15.10
2005,08,01,16,58,10.30
2005,08,01,16,59,15.90
2005,08,01,17,00,16.10
2005,08,01,17,01,7.40
2005,08,01,17,02,10.40
2005,08,01,17,03,10.50
2005,08,01,17,04,7.20
2005,08,01,17,05,8.90
2005,08,01,17,06,9.70
2005,08,01,17,07,10.10
2005,08,01,17,08,8.90
2005,08,01,17,09,8.80
2005,08,01,17,10,6.50
2005,08,01,17,11,6.30
2005,08,01,17,12,5.10
2005,08,01,17,13,11.90
2005,08,01,17,14,6.60
2005,08,01,17,15,10.00
2005,08,01,17,16,9.00
2005,08,01,17,17,6.90
2005,08,01,17,18,8.50
2005,08,01,17,19,8.60
2005,08,01,17,20,7.80
2005,08,01,17,21,8.60
2005,08,01,17,22,6.90
2005,08,01,17,23,8.40
2005,08,01,17,24,7.00
2005,08,01,17,25,8.50
2005,08,01,17,26,9.20
2005,08,01,17,27,7.90
2005,08,01,17,28,7.70
2005,08,01,17,29,10.20
2005,08,01,17,30,5.70
2005,08,01,17,31,7.80
2005,08,01,17,32,10.00
2005,08,01,17,33,8.50
2005,08,01,17,34,8.90
2005,08,01,17,35,9.90
2005,08,01,17,36,8.60
2005,08,01,17,37,6.00
2005,08,01,17,38,4.40
2005,08,01,17,39,4.90
2005,08,01,17,40,7.80
2005,08,01,17,41,5.70
2005,08,01,17,42,5.60
2005,08,01,17,43,5.30
2005,08,01,17,44,6.70
2005,08,01,17,45,8.60
2005,08,01,17,46,7.50
2005,08,01,17,47,10.40